Regional Weather Roundup
Issued by NWS

Home | Current Version | Previous Version | Graphics & Text | Print | Product List | Glossary On
Versions: 1 2 3 4 5 6 7 8 9 10 11 12 13 14 15 16 17 18 19 20 21 22 23 24 25 26 27 28 29 30 31 32 33 34 35 36 37 38 39 40 41 42 43 44 45 46 47 48 49 50
306
ASUS45 KBOI 240410
RWRID

IDAHO REGIONAL WEATHER ROUNDUP
NATIONAL WEATHER SERVICE BOISE ID
1000 PM MDT SUN APR 23 2017

NOTE: "FAIR" INDICATES FEW OR NO CLOUDS BELOW 12000 FEET
WITH NO SIGNIFICANT WEATHER AND/OR OBSTRUCTIONS TO VISIBILITY

IDZ012-014-240500-
SOUTHWEST IDAHO


CITY           SKY/WX    TMP DP  RH WIND       PRES   REMARKS
BOISE          CLOUDY    57  39  51 E3        29.76S
CALDWELL       CLOUDY    57  42  57 S6        29.76R
MOUNTAIN HOME  MOCLDY    49  42  78 SW7       29.77R
$$

IDZ016-017-240500-
SOUTHCENTRAL IDAHO


CITY           SKY/WX    TMP DP  RH WIND       PRES   REMARKS
BURLEY         MOCLDY    52  36  54 W9        29.78R
JEROME         CLOUDY    50  37  61 W5        29.79S
TWIN FALLS     CLOUDY    47  39  74 SW9       29.80S
$$

IDZ019>023-240500-
SOUTHEAST IDAHO


CITY           SKY/WX    TMP DP  RH WIND       PRES   REMARKS
IDAHO FALLS    CLEAR     47  35  63 E5        29.80R
POCATELLO      CLOUDY    47  36  65 S10       29.79S
REXBURG        CLOUDY    44  36  73 E6        29.79F
$$

IDZ006-010-011-018-031-032-240500-
CENTRAL IDAHO MOUNTAINS


CITY           SKY/WX    TMP DP  RH WIND       PRES   REMARKS
MCCALL         CLOUDY    38  35  89 CALM      29.79R
HAILEY         PTCLDY    48  28  46 NW7       29.81S
STANLEY          N/A     38  32  79 SE8       29.83S WCI  32
SALMON         CLOUDY    43  36  75 NW5       29.77S
CHALLIS        MOCLDY    46  31  55 E3        29.78R
$$

IDZ002-004-006-007-026-240500-
NORTHERN IDAHO


CITY           SKY/WX    TMP DP  RH WIND       PRES   REMARKS
LEWISTON       CLOUDY    52  40  63 W15       29.81R
LOWELL           N/A     47  43  86 W3        29.85R
COEUR D`ALENE  CLOUDY    48  36  63 S7        29.75S
MULLAN PASS    CLOUDY    33  30  88 VRB3      29.76S
$$




USA.gov is the U.S. government's official web portal to all federal, state and local government web resources and services.